Weather reports worldwide

Advertisment
Bologna, Italy (16132): temperature & dewpoint: 09.07.2018 21:00:00 - 15.07.2018 21:00:00 (CEST)Bologna, Italy (16132): reduced air pressure: 09.07.2018 21:00:00 - 15.07.2018 21:00:00 (CEST)Bologna, Italy (16132): precipitation: 09.07.2018 21:00:00 - 15.07.2018 21:00:00 (CEST)
Date & Time tt [°C] td [°C] ppp [hPa] rr [mm]
15.07.2018 21:00:00 - - - -
15.07.2018 20:00:00 25,5 18,1 1011,7 0,0
15.07.2018 19:00:00 26,5 21,2 1011,8 -
15.07.2018 18:00:00 26,2 18,0 1012,7 -
15.07.2018 17:00:00 30,0 20,8 1012,7 -
15.07.2018 16:00:00 31,0 20,9 1012,3 -
15.07.2018 15:00:00 29,9 21,0 1013,2 -
15.07.2018 14:00:00 29,9 21,5 1013,7 0,0
15.07.2018 13:00:00 28,3 20,5 1014,2 -
15.07.2018 12:00:00 27,6 20,4 1014,8 -
15.07.2018 11:00:00 26,3 20,3 1015,1 -
15.07.2018 10:00:00 24,8 20,4 1015,1 -
15.07.2018 09:00:00 23,6 20,3 1015,2 -
15.07.2018 08:00:00 22,0 18,9 1014,9 -
15.07.2018 07:00:00 20,8 17,9 1015,0 -
15.07.2018 06:00:00 21,0 18,5 1014,9 -
15.07.2018 05:00:00 21,0 18,1 1014,6 -
15.07.2018 04:00:00 21,3 18,4 1014,9 -
15.07.2018 03:00:00 21,4 18,5 1015,3 -
15.07.2018 02:00:00 21,5 18,4 1015,5 -
15.07.2018 01:00:00 22,3 19,2 1015,4 -
15.07.2018 00:00:00 22,6 19,3 1016,1 -
14.07.2018 23:00:00 23,2 19,9 1015,9 -
14.07.2018 22:00:00 25,6 20,8 1015,5 -
14.07.2018 21:00:00 28,4 19,8 1013,9 -
14.07.2018 20:00:00 29,3 20,4 1013,2 0,0
14.07.2018 19:00:00 30,6 21,4 1013,3 -
14.07.2018 18:00:00 31,3 22,0 1013,6 -
14.07.2018 17:00:00 32,0 20,9 1013,9 -
14.07.2018 16:00:00 31,8 20,7 1014,6 -
14.07.2018 15:00:00 31,7 20,3 1015,3 -
14.07.2018 14:00:00 30,6 20,5 1016,1 0,0
14.07.2018 13:00:00 30,4 20,6 1016,7 -
14.07.2018 12:00:00 28,7 19,8 1017,0 -
14.07.2018 11:00:00 27,3 19,6 1017,4 -
14.07.2018 10:00:00 25,5 18,4 1018,2 -
14.07.2018 09:00:00 24,1 16,3 1018,3 -
14.07.2018 08:00:00 21,7 14,3 1018,2 0,0
14.07.2018 07:00:00 20,4 12,8 1017,9 -
14.07.2018 06:00:00 20,8 12,7 1017,5 -
14.07.2018 05:00:00 21,3 12,9 1017,4 -
14.07.2018 04:00:00 22,0 13,5 1017,3 -
14.07.2018 03:00:00 22,5 14,5 1017,2 -
14.07.2018 02:00:00 23,7 16,7 1017,0 0,0
14.07.2018 01:00:00 24,7 19,5 1017,0 -
14.07.2018 00:00:00 24,9 19,2 1016,9 -
13.07.2018 23:00:00 25,7 19,3 1016,7 -
13.07.2018 22:00:00 27,1 19,9 1016,4 -
13.07.2018 21:00:00 28,6 20,0 1015,7 -
13.07.2018 20:00:00 29,8 19,5 1015,5 0,0
13.07.2018 19:00:00 30,3 19,3 1015,4 -
13.07.2018 18:00:00 30,6 19,6 1015,7 -
13.07.2018 17:00:00 30,5 19,8 1015,9 -
13.07.2018 16:00:00 30,0 19,9 1016,3 -
13.07.2018 15:00:00 29,5 19,5 1016,8 -
13.07.2018 14:00:00 29,1 20,5 1017,2 0,0
13.07.2018 13:00:00 28,7 20,6 1017,6 -
13.07.2018 12:00:00 27,7 19,2 1017,8 -
13.07.2018 11:00:00 26,1 18,2 1017,8 -
13.07.2018 10:00:00 24,8 17,7 1017,7 -
13.07.2018 09:00:00 22,7 15,5 1017,6 -
13.07.2018 08:00:00 21,6 15,1 1017,5 0,0
13.07.2018 07:00:00 19,8 15,4 1017,8 -
13.07.2018 06:00:00 20,1 14,4 1017,1 -
13.07.2018 05:00:00 20,0 14,9 1016,0 -
13.07.2018 04:00:00 20,8 15,0 1016,3 -
13.07.2018 03:00:00 20,8 15,7 1016,0 -
13.07.2018 02:00:00 21,1 16,4 1015,5 0,0
13.07.2018 01:00:00 22,0 17,5 1015,5 -
13.07.2018 00:00:00 23,0 18,5 1015,3 -
12.07.2018 23:00:00 24,1 19,7 1015,0 -
12.07.2018 22:00:00 25,9 19,2 1014,5 -
12.07.2018 21:00:00 27,0 19,0 1013,9 -
12.07.2018 20:00:00 28,3 19,5 1013,9 0,0
12.07.2018 19:00:00 28,5 18,8 1013,5 -
12.07.2018 18:00:00 27,7 18,6 1014,0 -
12.07.2018 17:00:00 28,6 18,6 1014,3 -
12.07.2018 16:00:00 28,6 18,6 1014,4 -
12.07.2018 15:00:00 28,7 17,8 1014,4 -
12.07.2018 14:00:00 27,8 18,4 1014,6 0,0
12.07.2018 13:00:00 26,0 18,1 1015,3 -
12.07.2018 12:00:00 24,9 18,5 1015,4 -
12.07.2018 11:00:00 23,4 18,4 1015,1 -
12.07.2018 10:00:00 22,3 18,4 1015,1 -
12.07.2018 09:00:00 21,3 18,0 1014,9 -
12.07.2018 08:00:00 18,7 15,5 1014,8 0,0
12.07.2018 07:00:00 17,4 14,4 1014,5 -
12.07.2018 06:00:00 17,5 14,3 1014,2 -
12.07.2018 05:00:00 19,1 16,6 1014,0 -
12.07.2018 04:00:00 19,7 17,0 1014,0 -
12.07.2018 03:00:00 20,0 17,5 1014,1 -
12.07.2018 02:00:00 20,7 18,2 1013,5 0,0
12.07.2018 01:00:00 20,6 17,9 1013,4 -
12.07.2018 00:00:00 21,4 18,5 1013,1 -
11.07.2018 23:00:00 21,9 18,8 1012,8 -
11.07.2018 22:00:00 22,4 19,1 1012,3 -
11.07.2018 21:00:00 23,2 19,3 1011,8 -
11.07.2018 20:00:00 23,3 18,8 1011,8 -
11.07.2018 19:00:00 23,3 18,8 1012,0 -
11.07.2018 18:00:00 23,4 19,7 1011,9 -
11.07.2018 17:00:00 23,2 18,7 1012,0 -
11.07.2018 16:00:00 24,1 19,5 1011,6 -
11.07.2018 15:00:00 23,9 19,6 1011,7 -
11.07.2018 14:00:00 24,0 19,9 1011,7 -
11.07.2018 13:00:00 23,0 19,7 1011,7 -
11.07.2018 12:00:00 21,9 18,8 1011,9 -
11.07.2018 11:00:00 21,0 18,1 1011,8 -
11.07.2018 10:00:00 20,1 17,2 1012,0 -
11.07.2018 09:00:00 19,1 16,3 1012,1 -
11.07.2018 08:00:00 19,4 16,6 1012,4 -
11.07.2018 07:00:00 19,3 16,1 1012,2 -
11.07.2018 06:00:00 20,0 15,8 1011,9 -
11.07.2018 05:00:00 19,9 15,7 1012,3 -
11.07.2018 04:00:00 20,3 15,6 1012,0 -
11.07.2018 03:00:00 20,9 16,8 1011,6 -
11.07.2018 02:00:00 22,3 16,0 1010,9 0,0
11.07.2018 01:00:00 24,5 15,3 1010,3 -
11.07.2018 00:00:00 24,6 15,4 1010,1 -
10.07.2018 23:00:00 25,5 15,7 1010,2 -
10.07.2018 22:00:00 26,8 16,1 1010,0 -
10.07.2018 21:00:00 28,6 16,1 1009,5 -
10.07.2018 20:00:00 29,1 19,4 1009,5 0,0
10.07.2018 19:00:00 29,4 19,7 1009,6 -
10.07.2018 18:00:00 28,2 19,1 1010,0 -
10.07.2018 17:00:00 26,8 17,8 1011,0 -
10.07.2018 16:00:00 26,7 16,0 1011,8 -
10.07.2018 15:00:00 31,0 17,3 1011,2 -
10.07.2018 14:00:00 30,4 16,4 1011,7 0,0
10.07.2018 13:00:00 30,6 17,6 1012,2 -
10.07.2018 12:00:00 29,4 17,2 1012,6 -
10.07.2018 11:00:00 28,1 18,7 1013,2 -
10.07.2018 10:00:00 26,4 18,2 1013,5 -
10.07.2018 09:00:00 24,3 17,0 1013,8 -
10.07.2018 08:00:00 22,9 16,4 1013,9 -
10.07.2018 07:00:00 22,6 14,9 1013,8 -
10.07.2018 06:00:00 22,4 14,7 1013,7 -
10.07.2018 05:00:00 22,8 15,1 1014,0 -
10.07.2018 04:00:00 23,0 15,7 1014,2 -
10.07.2018 03:00:00 23,3 15,3 1014,3 -
10.07.2018 02:00:00 23,6 15,6 1014,6 0,0
10.07.2018 01:00:00 23,9 15,1 1014,7 -
10.07.2018 00:00:00 24,3 14,6 1014,8 -
09.07.2018 23:00:00 25,4 14,5 1014,7 -
09.07.2018 22:00:00 26,6 14,3 1014,4 -
09.07.2018 21:00:00 27,9 14,8 1013,8 -

tt = temperature
td = dewpoint
ppp = reduced air pressure
rr = precipitation

Next stations